Temp
62 62 62 62 62 62 62 63 62 63 62 62 62 62 62 62 61 56 59 73 70 78 81 76 77 78 77 74 76 75 59 58 59 64 65 74 69 76 78 73 76 76 73 72 73
62 62 62 62 62 61 62 62 62 62 62 62 62 62 62 62 53 55 72 78 78 79 76 74 73 75 68 70 71 66 59 61 65 66 66 74 72 73 72 71 69 68 71 73 72
62 61 61 61 62 62 61 62 61 61 62 61 62 62 62 59 52 68 80 78 78 78 76 77 77 73 66 69 69 67 62 65 66 70 69 70 72 77 71 66 69 66 67 70 70
61 61 60 61 61 61 61 61 60 60 60 61 62 62 62 52 55 72 80 78 79 74 73 75 73 69 64 63 70 65 67 68 67 70 70 70 71 72 73 70 75 73 71 71 69
61 61 60 60 60 60 60 60 60 60 60 61 62 62 55 54 65 76 79 78 73 73 73 72 70 73 68 68 68 67 68 70 73 71 70 72 69 71 72 75 76 74 73 71 70
60 60 60 60 60 60 60 60 59 60 59 61 62 62 52 55 75 75 73 73 72 70 68 71 76 74 67 65 66 70 71 70 72 71 71 66 68 71 69 75 73 72 71 71 71
60 60 59 59 59 59 59 59 59 60 59 60 62 61 55 64 76 73 72 67 68 69 67 71 81 73 68 61 72 70 63 68 68 69 66 68 64 64 70 75 72 71 71 72 73
60 59 58 58 58 57 57 57 58 60 60 60 62 54 55 73 71 73 69 70 71 68 68 71 81 71 70 69 70 63 64 57 63 67 67 66 58 66 73 74 71 72 72 73 73
59 59 58 57 57 57 56 57 59 61 62 62 51 51 59 74 69 72 74 72 69 64 67 84 74 70 66 59 54 57 53 57 61 68 64 63 58 67 73 73 71 71 71 72 72
59 58 58 57 57 56 56 59 61 59 61 63 63 54 64 67 70 73 71 76 70 68 68 66 62 57 55 54 46 50 51 56 55 60 60 59 61 67 70 72 70 71 70 71 71
58 58 58 57 56 55 52 51 57 55 54 58 60 65 69 73 73 72 75 72 68 64 55 59 57 54 56 60 60 59 56 55 57 59 58 57 59 64 64 67 67 70 72 71 71
58 58 58 57 56 56 50 58 59 62 55 63 65 66 70 67 66 71 75 67 62 55 58 57 54 62 65 64 63 63 58 54 57 59 59 57 57 62 62 66 69 69 70 72 70
57 57 57 56 55 52 52 59 64 59 52 63 64 65 67 70 66 69 73 67 61 56 56 54 59 68 67 62 63 63 56 57 58 58 60 58 56 57 61 66 69 68 71 73 71
58 57 57 55 54 52 59 60 61 61 50 60 61 70 69 69 64 77 75 70 62 59 59 57 64 66 62 62 64 52 65 64 60 55 50 60 48 55 58 62 66 66 69 68 69
57 57 56 55 49 57 63 57 58 62 40 64 63 74 66 63 65 67 74 70 60 61 59 57 59 58 59 64 67 58 65 59 58 52 53 54 49 55 58 57 62 65 69 70 71
57 56 56 51 49 55 58 58 62 51 42 60 66 62 62 65 65 69 68 71 69 62 57 61 66 66 65 70 69 68 63 58 53 50 45 52 52 51 53 58 64 68 70 70 69
55 54 53 56 60 55 58 62 50 44 60 58 55 60 58 56 62 63 62 57 55 47 46 58 60 62 70 60 64 61 56 47 42 42 43 48 51 55 61 66 67 69 69 69 69
53 52 51 54 51 55 62 57 42 55 53 61 58 58 54 56 55 59 57 55 57 55 49 47 49 62 67 61 58 59 55 49 42 42 45 52 49 56 67 70 72 73 71 70 70
51 48 48 52 53 53 59 47 47 52 61 60 56 53 51 58 57 55 51 54 60 59 51 47 53 66 67 67 65 58 52 57 48 44 43 49 55 63 66 66 67 70 70 69 70
48 51 56 57 55 60 54 47 51 60 62 59 51 54 49 52 53 50 52 59 61 64 58 54 48 58 64 70 67 60 60 52 45 43 40 48 50 52 58 62 64 66 68 71 72
51 58 62 57 57 58 49 49 57 64 65 60 55 51 50 51 50 49 52 62 65 64 62 52 50 55 59 54 57 56 51 50 52 52 44 44 50 60 58 62 62 64 66 67 70
48 55 62 61 56 44 49 53 60 64 65 62 60 58 55 55 50 49 51 59 70 67 57 55 50 48 51 60 59 57 54 52 47 49 48 48 50 59 61 62 65 65 66 67 69
47 48 61 63 50 49 54 60 63 62 60 62 60 61 57 53 48 53 58 68 70 66 59 59 51 46 53 54 59 55 54 46 47 51 47 46 49 60 61 62 63 63 64 66 67
48 53 56 56 51 51 52 57 58 65 62 61 61 61 56 53 53 52 58 67 70 66 66 64 51 51 44 47 50 51 55 53 46 48 49 48 49 53 55 56 59 60 62 64 66
48 50 52 52 52 53 56 57 60 57 62 62 60 60 55 48 50 54 58 62 68 66 63 58 51 49 53 57 57 54 55 54 48 46 49 49 49 51 53 56 59 62 64 64 64
49 50 52 51 52 52 48 53 60 58 58 56 58 59 56 50 51 50 55 54 54 64 61 58 53 50 53 61 58 55 57 57 55 54 52 53 50 55 57 60 60 60 62 63 64
49 51 52 50 52 51 52 55 62 64 60 63 63 58 55 57 60 55 55 61 56 56 58 56 54 49 44 56 55 48 55 55 55 56 54 49 51 57 58 58 58 59 60 60 62
MSLP
1016.73 1016.52 1016.28 1016.10 1015.89 1015.64 1015.40 1015.15 1014.93 1014.75 1014.62 1014.43 1014.25 1014.09 1013.85 1013.51 1012.96 1012.64 1011.59 1009.26 1009.21 1009.13 1009.14 1009.71 1009.71 1009.63 1009.68 1009.92 1010.03 1010.28 1010.87 1011.63 1011.74 1011.56 1011.27 1010.92 1011.29 1011.45 1011.59 1012.20 1012.75 1013.18 1013.88 1014.54 1015.72
1016.72 1016.49 1016.25 1016.00 1015.80 1015.60 1015.31 1015.08 1014.83 1014.63 1014.50 1014.37 1014.19 1013.97 1013.72 1013.42 1013.11 1011.81 1008.81 1008.82 1008.90 1008.95 1009.33 1009.63 1009.77 1009.77 1010.00 1010.25 1010.38 1010.42 1011.29 1011.97 1012.04 1011.90 1011.58 1011.10 1011.23 1011.44 1011.89 1012.65 1013.51 1013.99 1014.71 1015.24 1015.93
1016.69 1016.49 1016.23 1015.94 1015.67 1015.44 1015.25 1015.00 1014.77 1014.53 1014.40 1014.25 1014.05 1013.81 1013.57 1013.38 1012.62 1009.40 1008.01 1008.53 1009.02 1009.02 1009.16 1009.33 1009.52 1009.86 1010.16 1010.42 1010.69 1010.79 1011.47 1011.97 1012.15 1012.01 1011.82 1011.42 1011.46 1011.42 1012.10 1012.97 1013.35 1013.92 1014.83 1015.57 1016.25
1016.72 1016.48 1016.20 1015.89 1015.61 1015.39 1015.12 1014.88 1014.68 1014.46 1014.31 1014.14 1013.90 1013.61 1013.29 1013.24 1011.25 1008.53 1008.20 1008.58 1008.95 1009.36 1009.46 1009.45 1009.71 1009.93 1010.22 1010.54 1010.84 1011.16 1011.75 1012.09 1012.32 1012.15 1012.10 1011.91 1012.02 1011.96 1012.12 1012.62 1013.10 1013.84 1014.42 1015.25 1016.14
1016.66 1016.41 1016.13 1015.87 1015.61 1015.34 1015.10 1014.89 1014.63 1014.43 1014.24 1014.06 1013.80 1013.50 1013.20 1012.33 1009.91 1008.26 1007.95 1008.53 1009.24 1009.62 1009.73 1009.75 1009.89 1009.85 1010.17 1010.52 1010.91 1011.08 1011.82 1012.08 1012.13 1012.39 1012.50 1012.31 1012.26 1012.32 1012.56 1012.79 1013.47 1014.19 1015.17 1015.53 1016.01
1016.65 1016.35 1016.09 1015.79 1015.52 1015.26 1015.02 1014.78 1014.52 1014.35 1014.24 1014.03 1013.76 1013.50 1013.17 1011.30 1008.71 1008.56 1008.59 1009.03 1009.40 1009.67 1009.92 1009.85 1009.79 1009.84 1010.18 1010.54 1011.00 1011.20 1011.55 1011.90 1012.11 1012.55 1012.54 1012.80 1012.67 1012.48 1013.14 1013.46 1013.97 1014.23 1015.04 1015.67 1015.82
1016.69 1016.34 1016.03 1015.76 1015.45 1015.14 1014.88 1014.61 1014.39 1014.25 1014.18 1014.05 1013.78 1013.50 1012.66 1010.07 1008.97 1008.95 1008.95 1009.33 1009.67 1009.72 1010.09 1009.92 1009.75 1010.04 1010.47 1011.10 1011.15 1011.38 1012.09 1012.31 1012.51 1012.94 1013.07 1013.24 1013.19 1013.09 1013.27 1013.70 1014.07 1014.49 1014.96 1015.57 1015.92
1016.64 1016.33 1016.07 1015.76 1015.43 1015.12 1014.76 1014.42 1014.17 1014.04 1014.01 1013.92 1013.76 1013.52 1011.60 1009.09 1009.07 1009.21 1009.22 1009.58 1009.84 1009.85 1009.92 1009.86 1009.80 1010.15 1010.65 1010.96 1011.42 1012.10 1012.52 1012.87 1013.16 1013.43 1013.57 1013.99 1013.34 1013.01 1012.98 1013.51 1013.96 1014.41 1014.91 1015.34 1015.73
1016.63 1016.29 1016.03 1015.67 1015.35 1015.02 1014.52 1014.01 1013.70 1013.75 1013.72 1013.76 1013.72 1013.11 1010.54 1008.87 1009.00 1008.65 1008.92 1009.59 1009.95 1010.02 1009.95 1009.81 1009.99 1010.50 1010.85 1011.44 1012.23 1012.81 1013.23 1013.42 1013.61 1014.05 1014.37 1014.52 1013.97 1013.19 1013.20 1013.56 1013.96 1014.31 1014.77 1015.18 1015.69
1016.57 1016.22 1015.85 1015.51 1015.22 1014.83 1014.26 1013.61 1013.48 1013.69 1013.75 1013.62 1013.24 1012.75 1010.02 1008.91 1008.35 1008.54 1009.03 1009.15 1009.63 1010.20 1010.30 1010.22 1010.78 1011.25 1011.79 1012.17 1012.81 1013.09 1013.60 1014.03 1014.47 1015.31 1015.09 1015.11 1014.30 1013.83 1013.73 1013.58 1014.06 1014.38 1014.80 1015.23 1015.32
1016.47 1016.07 1015.70 1015.40 1015.05 1014.73 1014.37 1014.00 1013.98 1013.67 1013.20 1012.24 1011.73 1010.94 1009.52 1008.55 1008.20 1008.46 1008.72 1009.17 1009.50 1010.06 1010.52 1010.76 1011.32 1011.43 1011.68 1011.67 1011.79 1012.37 1013.21 1014.10 1015.12 1015.41 1015.34 1015.28 1014.38 1014.12 1014.03 1014.29 1014.22 1014.38 1014.66 1014.98 1014.91
1016.38 1015.98 1015.51 1015.16 1014.85 1014.51 1014.57 1013.75 1012.94 1012.89 1012.45 1011.02 1010.86 1010.19 1009.13 1008.61 1008.33 1008.32 1008.47 1009.15 1009.74 1010.34 1010.52 1011.04 1010.97 1010.89 1010.93 1011.17 1011.42 1011.94 1012.68 1013.67 1014.71 1015.54 1015.84 1015.47 1015.05 1014.81 1014.71 1014.63 1014.15 1014.11 1014.41 1014.72 1015.29
1016.27 1015.81 1015.34 1014.87 1014.48 1014.34 1014.08 1012.91 1012.25 1012.40 1012.35 1010.45 1009.74 1009.11 1008.38 1008.42 1008.10 1008.12 1008.26 1008.83 1009.52 1010.25 1010.47 1010.65 1010.48 1010.29 1010.52 1010.85 1011.10 1011.40 1012.12 1012.98 1013.59 1014.87 1015.49 1015.39 1014.81 1014.72 1014.80 1014.49 1014.05 1013.94 1014.09 1014.30 1014.66
1015.91 1015.51 1015.14 1014.63 1014.61 1014.33 1013.30 1012.27 1012.29 1012.37 1011.76 1010.17 1008.97 1007.84 1007.90 1007.85 1007.87 1007.56 1007.86 1008.40 1009.15 1009.79 1010.38 1010.32 1009.82 1009.88 1010.12 1010.32 1010.64 1011.22 1011.80 1012.64 1013.27 1014.35 1014.93 1014.75 1014.97 1014.91 1013.83 1014.16 1013.90 1013.99 1013.93 1014.06 1014.42
1015.62 1015.27 1014.99 1014.82 1014.64 1013.90 1012.68 1012.27 1011.96 1012.09 1011.53 1009.57 1008.22 1007.16 1007.55 1007.97 1007.89 1007.85 1007.77 1008.00 1008.91 1009.54 1010.18 1010.24 1009.75 1009.54 1009.56 1009.62 1010.20 1011.47 1011.51 1012.89 1013.62 1014.41 1014.58 1014.79 1014.72 1013.58 1013.65 1013.64 1013.34 1013.43 1013.44 1013.57 1013.97
1015.27 1014.96 1014.74 1014.81 1014.66 1012.70 1012.20 1012.07 1011.94 1012.00 1010.78 1009.24 1008.10 1007.75 1008.04 1008.25 1008.24 1008.06 1008.00 1008.08 1008.73 1009.45 1009.91 1009.87 1009.24 1009.13 1008.97 1008.95 1009.55 1010.93 1012.16 1013.91 1014.05 1014.56 1014.81 1014.34 1014.15 1013.03 1012.78 1011.34 1012.04 1012.73 1012.93 1013.32 1013.58
1014.69 1014.36 1014.52 1014.12 1013.29 1012.43 1012.08 1012.22 1012.34 1011.48 1010.47 1009.59 1008.88 1008.67 1008.98 1009.31 1009.00 1008.77 1008.68 1008.99 1009.44 1009.93 1010.27 1009.72 1008.98 1008.52 1008.56 1009.48 1010.20 1010.91 1012.46 1014.11 1014.89 1014.83 1014.78 1014.04 1013.77 1011.47 1010.70 1010.53 1010.72 1011.31 1012.00 1012.76 1013.34
1013.96 1013.55 1013.50 1013.00 1012.59 1012.39 1012.08 1012.44 1012.11 1011.17 1010.30 1009.53 1009.47 1009.39 1009.78 1009.92 1009.88 1009.67 1009.42 1009.58 1009.57 1009.95 1010.37 1009.98 1008.81 1008.13 1008.30 1008.67 1009.59 1010.72 1011.87 1013.07 1014.27 1015.41 1014.81 1014.19 1012.80 1010.59 1009.61 1009.89 1010.30 1010.79 1011.52 1012.16 1012.80
1013.45 1013.46 1013.43 1012.16 1012.31 1012.95 1012.77 1012.82 1011.97 1010.99 1010.06 1009.64 1009.74 1009.97 1010.25 1010.23 1010.26 1010.10 1009.90 1009.77 1009.38 1009.45 1010.09 1009.76 1008.54 1007.44 1007.62 1007.89 1008.65 1010.86 1011.77 1012.49 1013.66 1015.09 1014.89 1013.46 1012.01 1010.63 1010.26 1010.14 1010.19 1010.41 1010.68 1011.27 1012.14
1013.62 1013.21 1012.74 1011.91 1012.34 1012.45 1012.86 1012.82 1011.66 1010.47 1009.62 1009.50 1009.85 1010.14 1010.52 1010.69 1010.66 1010.35 1009.80 1009.41 1009.13 1008.97 1009.06 1009.40 1009.23 1007.95 1007.77 1008.00 1009.00 1009.60 1011.45 1012.67 1013.93 1015.37 1014.72 1013.07 1012.11 1011.44 1010.89 1010.64 1010.27 1010.33 1010.81 1011.43 1011.70
1013.57 1013.23 1012.63 1012.36 1012.55 1012.82 1013.29 1012.53 1011.18 1009.68 1009.39 1009.25 1009.50 1009.99 1010.66 1010.85 1010.93 1010.66 1010.03 1009.13 1008.76 1008.72 1008.99 1009.33 1009.68 1009.20 1008.59 1008.94 1009.38 1010.96 1011.48 1012.57 1013.35 1014.16 1014.16 1013.17 1012.42 1012.30 1011.73 1010.99 1010.81 1011.07 1011.32 1011.37 1011.59
1014.21 1013.85 1012.61 1012.47 1013.12 1013.85 1013.29 1012.11 1010.64 1009.39 1008.94 1008.88 1009.06 1009.44 1010.21 1010.70 1010.83 1010.62 1010.13 1009.39 1008.50 1008.46 1008.92 1009.36 1009.97 1010.26 1010.22 1009.79 1009.74 1010.15 1010.95 1011.77 1012.75 1013.78 1013.67 1013.41 1013.25 1012.74 1012.34 1011.98 1011.67 1011.40 1011.49 1011.59 1011.66
1015.57 1014.48 1012.68 1012.31 1013.34 1013.70 1012.73 1011.72 1010.60 1009.54 1009.06 1008.83 1009.07 1009.38 1009.84 1010.42 1010.78 1010.42 1009.77 1008.79 1008.48 1008.40 1008.78 1009.15 1010.20 1010.70 1010.79 1010.61 1010.08 1010.50 1011.05 1011.52 1011.90 1012.37 1013.27 1013.79 1013.63 1013.33 1012.98 1012.88 1012.67 1012.40 1012.27 1012.11 1012.13
1015.98 1015.04 1013.85 1013.24 1013.27 1013.11 1012.63 1011.47 1010.32 1009.34 1009.21 1009.17 1009.45 1009.49 1009.98 1010.54 1010.60 1010.39 1009.82 1008.88 1008.66 1008.65 1008.89 1009.18 1010.76 1010.92 1011.80 1011.79 1011.51 1011.44 1011.64 1011.73 1012.30 1012.53 1013.29 1013.54 1014.06 1014.33 1014.37 1014.13 1013.72 1013.04 1012.74 1012.20 1012.26
1016.07 1015.58 1014.62 1014.05 1013.66 1013.05 1012.44 1011.46 1010.45 1009.58 1009.37 1009.36 1009.71 1009.91 1010.06 1010.67 1010.71 1010.61 1009.98 1009.70 1008.97 1009.02 1009.37 1010.24 1011.87 1011.59 1012.04 1011.86 1012.06 1012.08 1011.95 1011.86 1012.37 1012.53 1012.76 1013.89 1014.53 1015.06 1015.29 1014.92 1014.65 1014.11 1013.40 1012.88 1013.03
1016.45 1016.02 1014.88 1014.18 1013.52 1012.96 1012.26 1011.10 1010.22 1009.76 1009.74 1009.70 1010.02 1010.15 1010.13 1010.53 1010.73 1010.80 1010.70 1010.70 1010.28 1009.93 1010.44 1011.23 1012.26 1012.73 1012.25 1012.00 1012.35 1012.51 1012.51 1012.52 1012.72 1013.27 1013.55 1013.86 1014.85 1015.15 1015.30 1014.94 1014.90 1014.64 1014.22 1014.03 1014.04
1016.71 1016.11 1015.53 1014.47 1013.57 1012.80 1011.93 1010.87 1009.91 1009.55 1009.77 1009.62 1009.92 1010.11 1010.25 1010.37 1010.59 1010.84 1010.99 1010.78 1010.95 1011.24 1011.48 1011.74 1012.59 1013.53 1013.58 1012.89 1012.92 1013.45 1013.18 1013.15 1012.99 1013.51 1013.98 1014.58 1014.98 1015.42 1015.29 1015.42 1015.53 1015.49 1015.44 1015.35 1015.07
Wind_Speed
10 10 11 10 10 9 9 9 9 9 9 11 11 11 12 13 13 1 6 8 3 6 6 5 0 2 2 2 1 2 4 3 2 4 3 5 5 4 6 10 1 3 6 10 15
10 10 10 11 10 10 9 9 9 9 9 10 11 11 11 12 2 5 11 6 5 10 5 5 4 3 3 1 2 3 4 2 0 1 2 5 5 5 7 6 5 10 12 15 14
10 10 10 10 10 10 9 8 9 9 9 9 10 11 11 7 3 6 3 12 9 5 4 0 4 1 2 1 3 1 4 4 2 4 4 3 5 3 13 2 7 16 14 16 13
11 11 10 10 10 10 10 9 9 9 9 9 10 11 13 1 3 3 1 10 10 4 2 2 4 2 2 2 2 5 7 3 2 3 4 4 6 8 2 3 10 14 18 15 14
11 11 11 11 11 10 10 10 9 9 8 8 9 10 3 1 7 4 6 13 7 6 7 4 2 2 2 3 2 3 7 5 7 4 0 5 2 2 5 10 12 15 13 14 13
12 11 11 11 11 11 11 11 10 9 9 8 8 8 2 2 3 4 8 7 6 5 3 3 2 1 2 1 3 6 4 6 3 4 2 4 2 4 7 10 13 17 14 11 13
14 13 13 12 12 12 11 11 11 9 8 6 6 3 2 8 4 3 5 4 2 3 4 2 0 5 2 3 3 5 5 4 3 4 3 2 2 9 13 15 16 15 12 11 10
16 15 14 14 13 13 13 13 10 7 5 4 4 1 6 2 2 1 1 4 6 3 1 2 2 2 3 2 3 4 3 2 2 4 2 3 2 3 17 19 17 15 12 11 9
16 16 15 15 15 15 17 16 8 5 4 3 1 2 6 3 2 5 6 4 5 1 2 3 4 2 3 4 4 6 3 5 6 5 8 3 3 2 14 17 16 14 12 10 7
15 17 17 16 15 14 19 10 6 4 3 4 3 2 2 2 1 4 3 6 4 4 3 3 5 3 4 5 3 4 4 3 6 6 7 16 10 9 9 13 14 13 12 10 11
17 18 18 17 15 12 8 2 4 3 2 5 4 4 6 6 1 1 5 4 2 3 4 1 5 6 5 6 4 6 5 7 7 3 3 9 6 12 6 8 6 13 13 13 14
19 19 18 17 16 12 1 3 2 5 8 4 4 7 5 3 2 3 5 4 3 2 2 6 5 5 5 5 5 5 6 4 4 8 5 1 7 9 10 11 11 12 14 16 9
20 20 19 18 16 2 1 4 3 3 2 6 5 4 3 6 3 5 7 4 3 3 3 6 3 8 6 4 4 1 3 4 5 9 6 5 5 4 5 6 2 4 9 12 16
20 19 18 21 1 3 4 1 4 4 6 6 3 3 3 1 2 3 5 5 2 7 6 3 2 5 5 3 5 3 8 9 12 15 3 5 3 4 7 12 6 5 11 10 12
19 18 15 8 3 2 1 5 2 3 5 2 2 1 1 3 1 1 1 4 3 3 6 5 3 2 3 6 4 2 11 3 4 3 2 4 1 3 12 10 16 11 14 14 16
22 16 13 1 2 6 6 6 3 7 2 5 1 1 2 5 3 1 3 4 2 4 1 8 3 6 7 6 7 15 9 4 4 3 1 1 4 4 9 17 17 12 13 14 14
23 15 5 1 3 5 4 4 6 5 3 2 0 4 4 5 6 4 4 2 3 3 2 5 5 3 5 9 6 6 6 1 4 4 4 4 3 9 11 15 24 21 15 14 12
24 5 6 4 3 6 3 6 4 1 3 2 1 3 3 2 2 6 3 2 2 3 0 2 1 8 6 9 12 8 9 5 4 3 4 2 5 6 7 7 11 17 14 14 15
13 1 1 4 7 3 6 5 4 3 3 1 2 4 3 2 1 1 1 3 5 8 6 1 5 2 5 6 11 5 4 3 7 1 1 3 6 5 3 1 6 14 19 20 17
2 2 3 3 5 4 6 4 4 5 2 1 3 2 3 3 2 2 1 2 3 7 3 4 3 3 3 7 6 9 8 4 5 3 5 5 4 2 5 3 4 14 15 11 12
3 4 4 2 0 6 2 5 5 7 5 5 5 3 2 1 1 4 1 4 2 3 6 3 3 6 4 1 8 4 1 6 6 5 4 0 5 4 6 1 7 7 6 8 11
3 4 3 2 5 1 0 3 5 4 3 3 4 4 4 5 2 2 2 5 5 3 1 1 5 3 2 6 2 4 6 7 7 6 2 1 4 6 5 6 3 4 4 2 6
2 2 3 4 2 3 5 5 4 3 2 0 2 1 2 4 2 2 3 5 5 2 1 3 3 3 6 9 5 6 2 4 3 3 6 5 3 4 7 9 9 8 6 1 4
2 2 4 4 0 4 3 5 4 3 2 4 3 3 4 4 3 1 4 3 5 5 6 7 3 5 7 7 1 5 5 3 2 5 6 4 4 7 8 8 9 9 8 4 4
3 1 2 2 1 2 2 3 2 2 3 5 6 4 3 3 3 4 3 7 5 5 4 7 4 2 4 2 2 2 4 8 1 2 4 5 6 2 4 4 5 5 7 9 6
2 3 4 1 2 1 3 4 5 2 1 2 6 1 3 4 4 1 2 1 2 6 4 3 3 3 6 7 9 5 9 5 4 3 6 10 5 2 1 7 11 10 10 11 9
3 2 3 3 2 1 4 4 4 6 2 2 7 4 2 4 5 2 2 2 2 1 2 3 5 1 3 2 7 6 8 6 2 3 2 2 3 2 8 10 8 8 8 9 9
Wind_Direction
355 351 347 345 340 339 333 326 320 319 318 320 325 328 328 325 320 173 246 217 155 219 92 125 143 168 53 83 37 139 61 96 60 129 93 139 119 235 89 124 60 122 119 128 136
352 348 351 346 346 341 334 330 322 319 319 320 323 323 327 331 324 265 242 205 206 156 107 137 134 155 45 84 20 75 75 65 56 65 341 141 136 127 115 116 78 82 87 118 135
354 352 349 347 345 341 336 333 323 316 320 321 321 322 323 333 314 250 236 195 189 167 103 168 117 140 91 18 22 58 103 143 84 72 343 110 123 94 130 161 185 148 143 143 147
356 351 352 349 346 340 336 330 322 316 318 321 321 324 320 202 139 45 68 173 154 129 92 100 84 113 106 91 67 99 91 103 158 49 7 49 320 124 147 189 147 150 151 147 155
354 350 349 347 343 338 332 325 321 317 316 315 320 328 349 311 254 338 48 145 114 130 151 133 122 160 103 84 89 73 157 173 127 136 288 322 332 174 52 130 134 137 154 160 158
352 348 344 342 339 336 330 324 318 315 314 312 319 325 0 274 339 42 111 96 113 110 129 132 181 252 49 83 185 156 177 165 177 151 55 3 105 100 262 142 145 150 165 180 170
350 348 345 341 336 331 328 322 313 309 311 308 321 321 67 236 38 65 113 99 93 112 142 240 84 48 15 86 297 60 101 108 98 144 68 53 206 199 186 167 159 165 171 180 187
350 349 346 341 338 337 327 316 302 292 286 287 301 302 247 251 61 211 334 87 94 47 93 263 212 72 111 187 74 83 109 168 88 134 69 347 253 205 170 167 172 171 174 183 188
348 348 345 341 340 337 325 316 284 230 221 218 316 59 289 338 219 203 157 94 101 68 300 302 107 115 45 90 35 11 98 83 82 21 11 304 321 173 171 172 178 177 179 186 173
345 347 345 340 340 336 328 329 130 121 190 205 244 9 271 302 237 138 154 147 118 113 39 69 57 70 42 85 200 187 120 80 95 17 3 313 255 159 193 174 181 179 178 188 197
341 339 338 339 336 329 345 27 16 359 148 223 246 259 285 284 295 154 144 100 65 71 121 77 88 210 179 197 154 136 121 112 110 21 54 326 321 179 152 222 212 191 185 193 202
336 336 335 331 329 317 260 66 127 145 313 247 262 277 263 229 59 91 134 106 120 129 135 38 208 154 165 158 151 172 161 155 103 150 157 200 281 173 174 239 212 186 193 194 177
331 333 334 329 326 105 302 233 68 45 151 296 202 222 228 151 166 185 130 141 128 139 163 158 217 139 145 188 186 191 263 153 158 176 231 186 286 124 228 260 192 178 194 186 181
323 331 333 330 62 307 268 126 332 192 66 302 326 293 142 160 337 168 179 139 126 173 166 227 282 161 149 180 172 109 357 217 155 157 230 207 197 214 206 210 219 181 196 181 180
326 328 329 341 284 204 72 342 299 66 62 285 294 319 16 138 185 160 213 68 146 151 95 251 305 127 164 197 133 78 70 3 81 87 106 193 104 231 168 209 205 216 204 182 184
326 323 324 125 234 251 322 338 61 44 43 345 348 156 73 14 0 360 98 53 122 161 73 233 221 170 212 164 145 149 95 13 28 106 333 214 178 219 193 208 197 212 203 190 181
326 311 266 186 229 319 304 60 39 97 334 315 249 20 69 345 350 23 135 143 157 88 308 316 227 210 157 75 39 92 84 219 340 1 235 289 169 256 206 187 189 198 184 179 180
329 323 206 225 297 342 55 50 74 291 247 330 102 70 74 334 11 342 86 210 209 123 294 236 185 163 188 168 177 179 139 170 141 313 307 284 238 261 189 180 197 202 175 171 170
325 236 205 258 206 338 71 57 208 199 256 253 36 79 344 321 231 29 62 236 222 171 172 226 278 245 189 152 132 200 131 201 102 142 7 241 277 313 69 71 226 190 176 181 181
356 25 300 86 152 79 72 230 237 217 250 134 175 156 201 341 328 29 337 226 310 195 158 257 308 308 53 95 51 143 138 93 7 9 277 272 267 135 335 176 119 170 187 187 192
40 60 312 51 95 49 132 239 276 246 205 155 182 148 96 259 65 304 179 275 227 318 147 174 120 297 41 250 155 126 189 52 107 166 211 286 292 343 267 220 141 142 168 175 188
3 73 327 90 46 39 165 227 278 288 151 257 133 143 153 181 129 299 258 238 333 246 90 151 139 103 173 287 243 163 157 157 127 214 231 141 306 329 3 25 24 163 205 222 196
55 271 326 79 98 322 298 284 240 297 11 168 15 40 132 143 77 227 249 264 319 48 87 183 48 70 11 344 353 65 13 118 115 86 176 144 267 22 8 28 22 12 359 266 206
52 63 337 49 99 151 307 281 319 218 63 65 45 76 88 56 41 316 317 306 318 56 47 90 46 137 160 213 205 1 2 65 29 125 160 211 120 1 357 5 352 349 328 336 126
38 281 186 237 324 192 187 276 275 305 55 34 22 16 115 97 32 347 44 328 338 360 34 91 39 68 118 137 109 64 11 36 7 336 122 161 110 331 315 25 24 38 36 56 67
68 27 350 280 302 263 170 223 211 152 61 27 123 127 115 118 166 187 281 152 301 338 91 333 140 304 40 103 43 20 33 82 40 65 82 120 100 226 317 59 48 27 30 48 59
325 317 121 276 330 88 218 277 229 135 68 140 147 102 86 182 191 253 292 317 230 314 0 60 101 55 334 68 68 350 359 336 39 49 31 350 103 169 87 66 47 42 41 40 25